Ontario, OR

1:54 PM MDT on September 21, 2017 (GMT -0600)
Ontario Municipal

Weather History for KONO - January, 2014

Change the Weather History Date:

Friday, January 31, 2014

  Actual Average Record
Temperature  
Mean Temperature 28 °F 29 °F  
Max Temperature 36 °F 38 °F 57 °F (1953)
Min Temperature 20 °F 21 °F -19 °F (1979)
Degree Days  
Heating Degree Days 37 36  
Month to date heating degree days 1155 1163  
Since 1 July heating degree days 3947 3743  
Cooling Degree Days 0 0  
Month to date cooling degree days 0 0  
Year to date cooling degree days 0 0  
Moisture  
Dew Point 23 °F    
Average Humidity 81    
Maximum Humidity 92    
Minimum Humidity 70    
Precipitation  
Precipitation 0.00 in 0.03 in 0.72 in (1963)
Month to date precipitation 0.64 1.18  
Year to date precipitation 0.64 1.18  
Sea Level Pressure  
Sea Level Pressure 30.02 in    
Wind  
Wind Speed 2 mph (NNE)    
Max Wind Speed 8 mph    
Max Gust Speed 9 mph    
Visibility 7 miles    
Events Fog    
T = Trace of Precipitation, MM = Missing Value Source: NWS Daily Summary

Daily Weather History Graph

Daily Weather History Graph

Search for Another Location

Airport or City:

Trip Planner

Search our weather history database for the weather conditions in past years. The results will help you decide how hot, cold, wet, or windy it might be!

Date:

Astronomy

Jan. 31, 2014 Rise Set
Actual Time 8:06 AM MST 5:57 PM MST
Civil Twilight 7:35 AM MST 6:27 PM MST
Nautical Twilight 7:01 AM MST 7:02 PM MST
Astronomical Twilight 6:27 AM MST 7:36 PM MST
Moon 8:15 AM MST (1/31) 7:31 PM MST (1/31)
Length of Visible Light 10h 52m
Length of Day
9h 50m
New Moon, 1% of the Moon is Illuminated
Jan 31
New Moon
Feb 6
First Quarter
Feb 14
Full
Feb 22
Last Quarter
Mar 1
New

Hourly Weather History & Observations

Time (MST) Temp. Windchill Dew Point Humidity Pressure Visibility Wind Dir Wind Speed Gust Speed Precip Events Conditions
12:19 AM 25.0 °F - 21.0 °F 85% 29.92 in 1.2 mi Calm Calm - N/A   Overcast
12:25 AM 24.1 °F 19.7 °F 19.9 °F 84% 29.92 in 2.5 mi NE 3.5 mph - N/A   Mostly Cloudy
12:32 AM 25.0 °F 19.3 °F 21.0 °F 85% 29.92 in 1.8 mi NE 4.6 mph - N/A   Mostly Cloudy
12:40 AM 25.0 °F 19.3 °F 21.9 °F 88% 29.92 in 2.5 mi NNE 4.6 mph - N/A   Mostly Cloudy
12:48 AM 24.8 °F 20.5 °F 21.2 °F 86% 29.92 in 6.0 mi NNE 3.5 mph - N/A   Scattered Clouds
12:53 AM 25.0 °F 20.7 °F 21.9 °F 88% 29.99 in 5.0 mi NE 3.5 mph - N/A   Partly Cloudy
1:34 AM 24.1 °F 18.2 °F 21.0 °F 88% 29.92 in 1.8 mi NE 4.6 mph - N/A   Scattered Clouds
1:37 AM 24.1 °F 18.2 °F 21.0 °F 88% 29.92 in 0.8 mi NE 4.6 mph - N/A   Mist
1:53 AM 24.1 °F - 21.0 °F 88% 29.99 in 0.5 mi Calm Calm - N/A Fog Light Freezing Fog
2:53 AM 24.1 °F 19.7 °F 19.0 °F 81% 30.00 in 0.5 mi NNE 3.5 mph - N/A   Haze
3:33 AM 23.0 °F - 19.0 °F 85% 29.94 in 1.2 mi Calm Calm - N/A   Overcast
3:41 AM 21.9 °F - 19.0 °F 89% 29.94 in 2.5 mi Calm Calm - N/A   Overcast
3:50 AM 21.2 °F - 17.6 °F 86% 29.94 in 6.0 mi Calm Calm - N/A   Mostly Cloudy
3:53 AM 21.0 °F - 17.1 °F 85% 30.02 in 7.0 mi Calm Calm - N/A   Mostly Cloudy
4:01 AM 21.9 °F 15.7 °F 18.0 °F 85% 29.94 in 10.0 mi NNE 4.6 mph - N/A   Scattered Clouds
4:53 AM 21.9 °F - 17.1 °F 82% 30.01 in 10.0 mi Calm Calm - N/A   Scattered Clouds
5:53 AM 21.9 °F 17.2 °F 18.0 °F 85% 30.03 in 10.0 mi NNE 3.5 mph - N/A   Scattered Clouds
6:53 AM 21.0 °F - 17.1 °F 85% 30.03 in 10.0 mi Calm Calm - N/A   Partly Cloudy
7:53 AM 21.9 °F 17.2 °F 18.0 °F 85% 30.05 in 10.0 mi NNW 3.5 mph - N/A   Overcast
8:53 AM 24.1 °F 18.2 °F 19.9 °F 84% 30.07 in 10.0 mi NNE 4.6 mph - N/A   Overcast
9:53 AM 26.1 °F 21.9 °F 21.9 °F 84% 30.08 in 10.0 mi NNE 3.5 mph - N/A   Scattered Clouds
10:53 AM 28.0 °F - 25.0 °F 88% 30.08 in 10.0 mi Calm Calm - N/A   Overcast
11:53 AM 28.9 °F 25.2 °F 27.0 °F 92% 30.09 in 10.0 mi NE 3.5 mph - N/A   Overcast
12:53 PM 30.9 °F 27.5 °F 28.0 °F 89% 30.07 in 10.0 mi Variable 3.5 mph - N/A   Mostly Cloudy
1:53 PM 32.0 °F - 27.0 °F 82% 30.06 in 10.0 mi Calm Calm - N/A   Mostly Cloudy
2:53 PM 35.1 °F - 27.0 °F 72% 30.05 in 10.0 mi Calm Calm - N/A   Mostly Cloudy
3:53 PM 35.1 °F 32.2 °F 28.9 °F 78% 30.06 in 10.0 mi North 3.5 mph - N/A   Mostly Cloudy
4:53 PM 34.0 °F 28.8 °F 28.0 °F 79% 30.06 in 10.0 mi NNE 5.8 mph - N/A   Partly Cloudy
5:53 PM 33.1 °F 30.0 °F 28.0 °F 82% 30.07 in 10.0 mi North 3.5 mph - N/A   Overcast
6:53 PM 32.0 °F - 28.0 °F 85% 30.09 in 10.0 mi Calm Calm - N/A   Overcast
7:53 PM 33.1 °F - 28.0 °F 82% 30.09 in 10.0 mi Calm Calm - N/A   Overcast
8:53 PM 32.0 °F - 28.0 °F 85% 30.10 in 10.0 mi Calm Calm - N/A   Overcast
9:53 PM 32.0 °F - 28.0 °F 85% 30.10 in 10.0 mi Calm Calm - N/A   Overcast
10:53 PM 32.0 °F - 28.0 °F 85% 30.11 in 10.0 mi Calm Calm - N/A   Overcast
11:53 PM 30.0 °F - 27.0 °F 88% 30.11 in 9.0 mi Calm Calm - N/A   Overcast